Location: Ettringen
(48.1054°N, 10.6545°E)
Time: 21:34:49
(UTC+00:00)

Cosmos 2369 Rocket - Pass Details

Date: 18 November 2025
Orbit: 826 x 853 km, 71.0° (Epoch: 10 December)

Event Time Altitude Azimuth Distance (km) Brightness Sun altitude
Rises 17:45:43 0° 173° (S) 3,356 5.3 -21.4°
Reaches altitude 10° 17:48:24 10° 163° (SSE) 2,430 4.5 -21.8°
Enters shadow 17:50:15 19° 149° (SSE) 1,885 3.8 -22.2°
